Retour au catalogue

COSMOS 839 DEB

ActifUNKNOWN
NORAD 10415·DEBRIS·🇷🇺 Russia

Lancé Jul 8, 1976 depuis Plesetsk Cosmodrome

Loading…

Prochains Passages (prochaines 24 heures)

TLE

FraisSource: Space-Track

Époque: Sep 14, 2026, 12:25 UTC

1 10415U 76067J   26257.51795456 -.00000007  00000-0  21132-3 0  9991
2 10415  65.8360 276.8960 0675742 120.4942 322.3789 12.18833289233931

Suivez COSMOS 839 DEB en temps réel avec AllMySat

Download on the App Store